Location: Podia
(1.5569°N, 32.3469°E)
Time: 04:03:38
(UTC+00:00)

Hubble Space Telescope - Pass Details

Date: 13 May 2021
Orbit: 535 x 539 km, 28.5° (Epoch: 16 June)

Event Time Altitude Azimuth Distance (km) Brightness Sun altitude
Exits shadow 01:32:36 18° 106° (ESE) 1,330 3.2 -31.1°
Drops below altitude 10° 01:34:05 10° 91° (E) 1,774 4.2 -30.7°
Sets 01:36:34 0° 79° (ENE) 2,662 5.4 -30.2°
